User: anonymous   Login
Location: Unspecified
(0.0000°N, 0.0000°E)
Time: 10:18:57
(UTC+00:00)
Language:

Alouette 1 - Orbit

View from above orbital plane
View from above orbital plane
View from above satellite
View from above satellite

Ground track
Ground track

The orbit data is extracted from the following two-line orbital elements,

1   424U 62049A   17116.89517700 +.00000058 +00000-0 +57196-4 0  9999
2   424 080.4654 317.8581 0022712 206.1872 283.8958 13.69080536724043
Epoch (UTC): 26 April 2017 21:29:03
Eccentricity: 0.0022712
inclination: 80.4654°
perigee height: 986 km
apogee height: 1019 km
right ascension of ascending node: 317.8581°
argument of perigee: 206.1872°
revolutions per day: 13.69080536
mean anomaly at epoch: 283.8958°
orbit number at epoch: 72404

The dashed part of the orbit path shows where the satellite is in the earth's shadow,  

DLR